Orbital Elements at Epoch 2459000.5 (2020-May-31.0) TDB
Reference: JPL 32 (heliocentric ecliptic J2000)
Element | Value | Uncertainty (1-sigma) | Units |
e | .08952537278437146 | 5.374e-08 | |
a | 2.988483865757247 | 1.7668e-08 | au |
q | 2.72093873361525 | 1.615e-07 | au |
i | 9.813833335237106 | 5.6782e-06 | deg |
node | 4.577508778726181 | 1.9786e-05 | deg |
peri | 6.016253112205194 | 2.9516e-05 | deg |
M | 38.18397511960519 | 1.9835e-05 | deg |
tp | 2458800.350993942397 (2019-Nov-12.85099394) | 0.0001043 | TDB |
period | 1887.012600313105 5.17 | 1.6734e-05 4.582e-08 | d yr |
n | .1907777404031465 | 1.6918e-09 | deg/d |
Q | 3.256028997899244 | 1.925e-08 | au |
|
| | Orbit Determination Parameters
Additional Information
|